Simultaneous Nadir Overpasses (SNOs) Predictions

Prediction of SNOs near equator between NOAA-19 and NPP Satellite Orbit:

Table of predicted SNOs near equator for the next 14.0 days since TLE Epoch: 12/25/2011
Index Date (NOAA-19) Time (NOAA-19) NOAA-19 Lat,Lon Date (NPP) Time (NPP) NPP Lat,Lon Distance(km) Time Diff (sec)
1 01/03/2012 15:28:28 -29.97, 145.69 01/03/2012 15:25:50 -29.79, 144.70 97.11 158
2 01/03/2012 16:19:40 29.98, -47.11 01/03/2012 16:16:39 29.80, -48.00 88.11 181
3 01/03/2012 17:10:34 -30.00, 120.16 01/03/2012 17:07:20 -29.81, 119.32 83.10 194
4 01/03/2012 18:01:45 29.95, -72.63 01/03/2012 17:58:09 29.81, -73.38 74.19 216
5 01/03/2012 18:52:39 -29.97, 94.64 01/03/2012 18:48:50 -29.82, 93.95 69.13 229
6 01/03/2012 19:43:51 29.98, -98.16 01/03/2012 19:39:39 29.83, -98.76 60.24 252
7 01/03/2012 20:34:45 -29.99, 69.11 01/03/2012 20:30:21 -29.89, 68.55 55.16 264
8 01/03/2012 21:25:56 29.95,-123.67 01/03/2012 21:21:09 29.84,-124.14 46.24 287
9 01/03/2012 22:16:50 -29.96, 43.60 01/03/2012 22:11:50 -29.85, 43.19 41.32 300
10 01/03/2012 23:08:02 29.97,-149.20 01/03/2012 23:02:40 29.91,-149.53 32.26 322
11 01/03/2012 23:58:56 -29.99, 18.07 01/03/2012 23:53:21 -29.92, 17.80 27.25 335
12 01/04/2012 00:50:08 30.00,-174.73 01/04/2012 00:44:11 29.99,-174.93 18.49 357
13 01/04/2012 01:41:01 -29.96, -7.45 01/04/2012 01:34:51 -29.94, -7.58 13.30 370
14 01/04/2012 02:32:13 29.97, 159.75 01/04/2012 02:25:40 29.94, 159.71 4.74 393
15 01/04/2012 03:22:06 -26.46, -32.01 01/04/2012 03:15:21 -26.46, -32.02 0.73 405
16 01/04/2012 04:06:33 2.98, 140.86 01/04/2012 03:59:28 2.97, 140.87 1.08 425
17 01/04/2012 04:55:19 4.47, -50.17 01/04/2012 04:48:01 4.47, -50.13 4.81 438
18 01/04/2012 05:46:48 -3.43, 116.79 01/04/2012 05:39:09 -3.38, 116.92 15.14 459
19 01/04/2012 06:37:59 2.47, -76.15 01/04/2012 06:30:06 2.41, -75.97 21.68 473
20 01/04/2012 07:29:30 -1.32, 90.79 01/04/2012 07:21:15 -1.26, 91.07 31.84 495
21 01/04/2012 08:20:41 0.35,-102.16 01/04/2012 08:12:12 0.29,-101.82 38.50 509
22 01/04/2012 09:12:10 0.68, 64.81 01/04/2012 09:03:20 0.80, 65.23 48.75 530
23 01/04/2012 10:03:21 -1.66,-128.14 01/04/2012 09:54:17 -1.77,-127.65 55.22 544
24 01/04/2012 11:02:40 29.
